Weather in Salsk

Russia / Rostov Oblast     46°28′31″N   41°32′29″E
temp.,
°C
wind,
m/s
gust,
m/s
humid.,
%
clouds,
%
prec.,
mm/h
press.,
hPa
HPBL,
m
25 february, thu
thu2500:00−14ese487491 0.0 1040317
03:00−14e367655 0.0 1039234
06:00−14ese477260 0.0 1038224
09:00−12ese347769 0.0 1037220
12:00−7sse226982 0.0 1036307
15:00−3wsw236084 0.0 1033411
18:00−5sw2374100 0.0 103245
21:00−4sw4971100 0.0 1031227
26 february, fri
fri2600:00−3wsw51368100 0.0 1029368
03:00−1w71487100 0.0 1028413
06:000w71392100 0.0 1026439
09:00+1wsw81491100 0.0 1027415
12:00+2wsw81494100 0.0 1025384
15:00+3wsw81495100 0.0 1024411
18:00+3wsw6129695 0.0 1024375
21:00+3wsw6139698 0.0 1023374
27 february, sat
sat2700:00+3wsw7159499 0.0 1021469
03:00+4wsw7169498 0.0 1020550
06:00+4wsw81693100 0.1 1018532
09:00+4wsw81592100 0.2 1017541
12:00+4wsw81693100 0.3 1016574
15:00+4wsw81692100 0.7 1015603
18:00+4wsw61394100 0.4 1014428
21:00+3w41096100 1.1 1014298
28 february, sun
sun2800:00+3w3798100 1.6 1013194
03:00+2w2399100 2.9 101369
06:00+2wnw2298100 0.4 101341
09:00+2nnw2497100 0.8 1014203
12:00+4nw3382100 0.0 1014536
15:00+4nw3482100 0.2 1015583
18:00+3wnw3686100 0.3 1017260
21:00+2nw4696100 0.3 1019398
1 march, mon
mon100:00+1nw3597100 0.1 1021301
03:00−1nnw359491 0.3 1022147
06:00−2nnw258468 0.0 1024266
09:000nnw237380 0.0 1026498
12:00+1nw347598 0.1 1027757
15:00+2nnw457299 0.1 1027862
18:00+1nnw3574100 0.1 1029422
21:000n3680100 0.1 1031480